Location: Unspecified
(47.4992°N, 121.7766°W)
Time: 18:52:18
(UTC-08:00)

Cosmos 2058 - Pass Details

Date: 05 February 2021
Orbit: 561 x 584 km, 82.5° (Epoch: 05 March)

Event Time Altitude Azimuth Distance (km) Brightness Sun altitude
Rises 04:21:57 0° 6° (N) 2,768 6.6 -31.6°
Reaches altitude 10° 04:25:01 10° 31° (NNE) 1,864 6.0 -31.0°
Maximum altitude 04:27:20 15° 66° (ENE) 1,581 5.9 -30.7°
Drops below altitude 10° 04:29:39 10° 101° (E) 1,854 6.3 -30.3°
Sets 04:32:41 0° 125° (SE) 2,744 7.0 -29.8°
